DAL502 KATL-KLAX

Flight info

Callsign DAL502
Flight time N/A
Altitude 38000
Route NASSA2 YAALL J14 PNH ACH ABQ J78 DRK GABBL HLYWD1
Aircraft A321/M-SDE3FGHIRWY/LB1

Departure

Time 2026-04-30 22:23
Airport Hartsfield Jackson Atlanta International Airport (KATL)

Arrival

Time N/A
Airport Los Angeles International Airport (KLAX)
Time Latitude Longitude Altitude Speed Heading
2026-04-30 22:06 33.64297 -84.42519 993 ft 0 kts 270°
2026-04-30 22:11 33.64297 -84.42518 993 ft 1 kts 270°
2026-04-30 22:12 33.64296 -84.42500 993 ft 2 kts 272°
2026-04-30 22:12 33.64296 -84.42487 992 ft 0 kts 269°
2026-04-30 22:12 33.64296 -84.42471 992 ft 2 kts 257°
2026-04-30 22:12 33.64301 -84.42454 991 ft 2 kts 242°
2026-04-30 22:13 33.64310 -84.42439 991 ft 2 kts 227°
2026-04-30 22:13 33.64320 -84.42427 990 ft 2 kts 213°
2026-04-30 22:13 33.64334 -84.42419 990 ft 2 kts 199°
2026-04-30 22:13 33.64348 -84.42415 990 ft 1 kts 184°
2026-04-30 22:14 33.64355 -84.42415 990 ft 1 kts 178°
2026-04-30 22:14 33.64357 -84.42415 990 ft 0 kts 180°
2026-04-30 22:15 33.64353 -84.42415 990 ft 0 kts 180°
2026-04-30 22:16 33.64344 -84.42415 990 ft 1 kts 184°
2026-04-30 22:16 33.64326 -84.42416 990 ft 3 kts 182°
2026-04-30 22:17 33.64263 -84.42301 987 ft 11 kts 91°
2026-04-30 22:17 33.64321 -84.42237 985 ft 13 kts
2026-04-30 22:17 33.64485 -84.42210 984 ft 1 kts 49°
2026-04-30 22:18 33.64498 -84.42192 983 ft 4 kts 51°
2026-04-30 22:18 33.64539 -84.42091 981 ft 9 kts 82°
2026-04-30 22:19 33.64542 -84.41883 976 ft 14 kts 90°
2026-04-30 22:19 33.64542 -84.41752 974 ft 16 kts 90°
2026-04-30 22:19 33.64542 -84.41466 974 ft 17 kts 90°
2026-04-30 22:20 33.64542 -84.41326 974 ft 16 kts 90°
2026-04-30 22:20 33.64542 -84.41048 974 ft 16 kts 90°
2026-04-30 22:20 33.64543 -84.40906 973 ft 17 kts 90°
2026-04-30 22:21 33.64565 -84.40765 973 ft 17 kts 78°
2026-04-30 22:21 33.64570 -84.40633 972 ft 9 kts 86°
2026-04-30 22:21 33.64581 -84.40591 972 ft 0 kts 53°
2026-04-30 22:22 33.64583 -84.40588 972 ft 1 kts 52°
2026-04-30 22:22 33.64603 -84.40571 972 ft 5 kts 19°
2026-04-30 22:22 33.64646 -84.40583 973 ft 7 kts 322°
2026-04-30 22:22 33.64676 -84.40649 974 ft 10 kts 279°
2026-04-30 22:23 33.64681 -84.40910 977 ft 73 kts 271°
2026-04-30 22:23 33.64684 -84.41879 978 ft 155 kts 269°
2026-04-30 22:23 33.64682 -84.43388 1436 ft 188 kts 274°
2026-04-30 22:23 33.64686 -84.44906 2512 ft 191 kts 272°
2026-04-30 22:24 33.64687 -84.46534 3404 ft 202 kts 282°
2026-04-30 22:24 33.64980 -84.48207 4004 ft 213 kts 288°
2026-04-30 22:24 33.65381 -84.49989 4522 ft 231 kts 288°
2026-04-30 22:24 33.65794 -84.51912 5035 ft 248 kts 287°
2026-04-30 22:25 33.66213 -84.54022 5597 ft 264 kts 285°
2026-04-30 22:25 33.66621 -84.56172 6380 ft 269 kts 285°
2026-04-30 22:25 33.67027 -84.58348 7242 ft 270 kts 284°
2026-04-30 22:25 33.67415 -84.60567 8126 ft 271 kts 283°
2026-04-30 22:26 33.68156 -84.64970 9807 ft 273 kts 282°
2026-04-30 22:26 33.68530 -84.67207 10586 ft 276 kts 281°
2026-04-30 22:26 33.68919 -84.69521 11001 ft 292 kts 281°
2026-04-30 22:27 33.69336 -84.72002 11343 ft 309 kts 281°
2026-04-30 22:27 33.69714 -84.74630 11654 ft 326 kts 278°
2026-04-30 22:27 33.69991 -84.80260 12590 ft 347 kts 271°
2026-04-30 22:28 33.69988 -84.86089 14011 ft 350 kts 270°
2026-04-30 22:28 33.69981 -84.88992 14696 ft 351 kts 271°
2026-04-30 22:29 33.69958 -84.97888 16487 ft 360 kts 271°
2026-04-30 22:29 33.69950 -85.00897 17089 ft 361 kts 271°
2026-04-30 22:30 33.69908 -85.13039 19419 ft 363 kts 271°
2026-04-30 22:31 33.69870 -85.22068 21198 ft 358 kts 271°
2026-04-30 22:32 33.69784 -85.31001 22825 ft 354 kts 271°
2026-04-30 22:32 33.69717 -85.36893 23762 ft 355 kts 271°
2026-04-30 22:33 33.69611 -85.45850 24947 ft 360 kts 271°
2026-04-30 22:33 33.69537 -85.51961 25251 ft 373 kts 271°
2026-04-30 22:34 33.69412 -85.61329 26310 ft 375 kts 271°
2026-04-30 22:35 33.69329 -85.67576 27313 ft 369 kts 271°
2026-04-30 22:36 33.69154 -85.79726 29274 ft 360 kts 270°
2026-04-30 22:36 33.69105 -85.82738 29744 ft 358 kts 271°
2026-04-30 22:37 33.68965 -85.91603 31086 ft 353 kts 271°
2026-04-30 22:37 33.68914 -85.94533 31532 ft 350 kts 271°
2026-04-30 22:37 33.68821 -86.00336 32417 ft 346 kts 272°
2026-04-30 22:38 33.68957 -86.06097 33210 ft 341 kts 276°
2026-04-30 22:38 33.69374 -86.11692 34077 ft 337 kts 278°
2026-04-30 22:39 33.69591 -86.14500 34438 ft 336 kts 277°
2026-04-30 22:39 33.70238 -86.22868 35416 ft 335 kts 277°
2026-04-30 22:40 33.70879 -86.31185 36275 ft 334 kts 278°
2026-04-30 22:41 33.71523 -86.39549 36794 ft 337 kts 277°
2026-04-30 22:41 33.71955 -86.45202 37100 ft 339 kts 277°
2026-04-30 22:42 33.72809 -86.56507 37637 ft 342 kts 277°
2026-04-30 22:43 33.73238 -86.62228 37852 ft 343 kts 277°
2026-04-30 22:43 33.73665 -86.67964 37991 ft 345 kts 277°
2026-04-30 22:44 33.74091 -86.73709 37996 ft 345 kts 277°
2026-04-30 22:45 33.75349 -86.90916 37999 ft 345 kts 277°
2026-04-30 22:47 33.76584 -87.08146 38003 ft 344 kts 277°
2026-04-30 22:48 33.77391 -87.19595 38008 ft 343 kts 277°
2026-04-30 22:49 33.78575 -87.36739 38004 ft 344 kts 277°
2026-04-30 22:51 33.80579 -87.53724 37998 ft 341 kts 284°
2026-04-30 22:52 33.82286 -87.62019 37996 ft 341 kts 284°
2026-04-30 22:53 33.84565 -87.73052 37991 ft 340 kts 284°
2026-04-30 22:53 33.86274 -87.81325 37994 ft 339 kts 284°
2026-04-30 22:55 33.89097 -87.95062 37989 ft 338 kts 284°
2026-04-30 22:56 33.91351 -88.06059 37989 ft 339 kts 283°
2026-04-30 22:57 33.94139 -88.19779 37990 ft 338 kts 284°
2026-04-30 22:58 33.96367 -88.30785 37994 ft 338 kts 284°
2026-04-30 22:59 33.99686 -88.47294 38004 ft 338 kts 283°